When you browse on this site, cookies collect data to enhance your experience and personalize the content and advertising you see.
Visit our Privacy Policy to learn more. By continuing to use the site, you agree to this use of cookies and data.
  • En España
  • Lista de países
  • Para 7 días
  • Temperatura del agua
  • Mapa Satelital
  • El tiempo en el mapa
  • Informadores
  • user-avatar
    Iniciar sesión

    Tiempo cada hora Maksyma Hor'koho

    Hoy, 23 Mayo, Jueves

    Tiempo Temperatura Precipitaciones Viento Presión Humedad
    00:00 +16°C° 0 mm 6 mps 757 mmHg 77%
    01:00 +16°C° 0 mm 6 mps 757 mmHg 78%
    02:00 +16°C° 0 mm 6 mps 757 mmHg 78%
    03:00 +16°C° 0 mm 5 mps 757 mmHg 78%
    04:00 +16°C° 0 mm 5 mps 757 mmHg 78%
    05:00 +16°C° 0 mm 5 mps 757 mmHg 78%
    06:00 +19°C° 0 mm 5 mps 757 mmHg 70%
    07:00 +21°C° 0 mm 5 mps 757 mmHg 63%
    08:00 +23°C° 0 mm 6 mps 757 mmHg 55%
    09:00 +23°C° 0 mm 6 mps 757 mmHg 52%
    10:00 +24°C° 0 mm 6 mps 757 mmHg 50%
    11:00 +26°C° 0 mm 6 mps 757 mmHg 47%
    12:00 +26°C° 0 mm 6 mps 757 mmHg 47%
    13:00 +26°C° 0 mm 6 mps 757 mmHg 48%
    14:00 +26°C° 0 mm 6 mps 757 mmHg 48%
    15:00 +24°C° 0 mm 6 mps 757 mmHg 51%
    16:00 +23°C° 0 mm 6 mps 756 mmHg 54%
    17:00 +23°C° 0 mm 6 mps 756 mmHg 57%
    18:00 +21°C° 0 mm 5 mps 756 mmHg 64%
    19:00 +19°C° 0 mm 4 mps 756 mmHg 72%
    20:00 +18°C° 0 mm 4 mps 756 mmHg 79%
    21:00 +17°C° 0 mm 4 mps 757 mmHg 81%
    22:00 +17°C° 0 mm 3 mps 757 mmHg 82%
    23:00 +17°C° 0 mm 3 mps 757 mmHg 84%

    Mañana, 24 Mayo, Viernes

    Tiempo Temperatura Precipitaciones Viento Presión Humedad
    00:00 +17°C° 0 mm 3 mps 757 mmHg 85%
    01:00 +17°C° 0 mm 3 mps 757 mmHg 86%
    02:00 +16°C° 0 mm 3 mps 757 mmHg 87%
    03:00 +17°C° 0 mm 3 mps 757 mmHg 87%
    04:00 +17°C° 0 mm 2 mps 756 mmHg 86%
    05:00 +17°C° 0 mm 2 mps 756 mmHg 86%
    06:00 +19°C° 0 mm 2 mps 756 mmHg 78%
    07:00 +20°C° 0 mm 2 mps 756 mmHg 71%
    08:00 +23°C° 0 mm 2 mps 757 mmHg 64%
    09:00 +24°C° 0 mm 2 mps 756 mmHg 59%
    10:00 +25°C° 0 mm 2 mps 756 mmHg 55%
    11:00 +26°C° 0 mm 2 mps 756 mmHg 50%
    12:00 +26°C° 0 mm 2 mps 756 mmHg 48%
    13:00 +27°C° 0 mm 2 mps 756 mmHg 46%
    14:00 +27°C° 0 mm 3 mps 756 mmHg 44%
    15:00 +27°C° 0 mm 3 mps 756 mmHg 46%
    16:00 +26°C° 0 mm 3 mps 755 mmHg 49%
    17:00 +26°C° 0 mm 3 mps 755 mmHg 51%
    18:00 +24°C° 0.1 mm 2 mps 755 mmHg 57%
    19:00 +23°C° 0.1 mm 2 mps 755 mmHg 62%
    20:00 +21°C° 0.1 mm 1 mps 755 mmHg 68%
    21:00 +21°C° 0.4 mm 1 mps 755 mmHg 70%
    22:00 +20°C° 0.4 mm 1 mps 755 mmHg 72%
    23:00 +20°C° 0.4 mm 1 mps 755 mmHg 75%

    Pasado mañana, 25 Mayo, Sábado

    Tiempo Temperatura Precipitaciones Viento Presión Humedad
    00:00 +20°C° 1.3 mm 1 mps 755 mmHg 77%
    01:00 +19°C° 1.3 mm 1 mps 755 mmHg 79%
    02:00 +19°C° 1.3 mm 1 mps 755 mmHg 81%
    03:00 +19°C° 0.1 mm 1 mps 755 mmHg 81%
    04:00 +18°C° 0.1 mm 2 mps 755 mmHg 82%
    05:00 +18°C° 0.1 mm 2 mps 754 mmHg 82%
    06:00 +19°C° 0.3 mm 2 mps 755 mmHg 77%
    07:00 +20°C° 0.3 mm 2 mps 755 mmHg 72%
    08:00 +21°C° 0.3 mm 2 mps 755 mmHg 67%
    09:00 +23°C° 0.1 mm 2 mps 755 mmHg 63%
    10:00 +24°C° 0.1 mm 2 mps 755 mmHg 58%
    11:00 +25°C° 0.1 mm 2 mps 755 mmHg 54%
    12:00 +25°C° 0.3 mm 4 mps 755 mmHg 55%
    13:00 +25°C° 0.3 mm 5 mps 755 mmHg 55%
    14:00 +24°C° 0.3 mm 6 mps 755 mmHg 56%
    15:00 +24°C° 0 mm 6 mps 755 mmHg 57%
    16:00 +23°C° 0 mm 6 mps 754 mmHg 59%
    17:00 +23°C° 0 mm 6 mps 754 mmHg 61%
    18:00 +21°C° 0 mm 5 mps 755 mmHg 67%
    19:00 +20°C° 0 mm 5 mps 755 mmHg 72%
    20:00 +19°C° 0 mm 5 mps 755 mmHg 78%
    21:00 +17°C° 0 mm 5 mps 755 mmHg 80%
    22:00 +17°C° 0 mm 5 mps 755 mmHg 82%
    23:00 +16°C° 0 mm 5 mps 755 mmHg 83%

    26 Mayo, Domingo

    Tiempo Temperatura Precipitaciones Viento Presión Humedad
    00:00 +16°C° 0 mm 5 mps 755 mmHg 86%
    01:00 +16°C° 0 mm 5 mps 755 mmHg 89%
    02:00 +17°C° 0 mm 4 mps 755 mmHg 92%
    03:00 +17°C° 0 mm 4 mps 755 mmHg 90%
    04:00 +18°C° 0 mm 4 mps 755 mmHg 89%
    05:00 +18°C° 0 mm 3 mps 755 mmHg 87%
    06:00 +19°C° 0 mm 4 mps 756 mmHg 81%
    07:00 +21°C° 0 mm 4 mps 756 mmHg 74%
    08:00 +22°C° 0 mm 4 mps 756 mmHg 67%
    09:00 +25°C° 0 mm 4 mps 756 mmHg 62%
    10:00 +26°C° 0 mm 5 mps 757 mmHg 57%
    11:00 +27°C° 0 mm 5 mps 757 mmHg 52%
    12:00 +27°C° 0 mm 6 mps 757 mmHg 52%
    13:00 +27°C° 0 mm 6 mps 757 mmHg 52%
    14:00 +27°C° 0 mm 7 mps 757 mmHg 52%
    15:00 +27°C° 0 mm 7 mps 757 mmHg 53%
    16:00 +26°C° 0 mm 7 mps 758 mmHg 53%
    17:00 +26°C° 0 mm 6 mps 758 mmHg 53%
    18:00 +23°C° 0 mm 6 mps 758 mmHg 59%
    19:00 +21°C° 0 mm 6 mps 758 mmHg 65%
    20:00 +20°C° 0 mm 5 mps 759 mmHg 70%
    21:00 +19°C° 0 mm 5 mps 759 mmHg 73%
    22:00 +19°C° 0 mm 5 mps 759 mmHg 76%
    23:00 +18°C° 0 mm 4 mps 759 mmHg 79%

    27 Mayo, Lunes

    Tiempo Temperatura Precipitaciones Viento Presión Humedad
    00:00 +18°C° 0 mm 4 mps 759 mmHg 80%
    01:00 +18°C° 0 mm 4 mps 759 mmHg 81%
    02:00 +18°C° 0 mm 4 mps 759 mmHg 82%
    03:00 +18°C° 0 mm 4 mps 759 mmHg 83%
    04:00 +18°C° 0 mm 4 mps 759 mmHg 83%
    05:00 +18°C° 0 mm 4 mps 759 mmHg 83%
    06:00 +20°C° 0 mm 5 mps 760 mmHg 77%
    07:00 +21°C° 0 mm 5 mps 760 mmHg 71%
    08:00 +23°C° 0 mm 6 mps 760 mmHg 65%
    09:00 +25°C° 0 mm 5 mps 760 mmHg 61%
    10:00 +26°C° 0 mm 5 mps 760 mmHg 58%
    11:00 +27°C° 0 mm 5 mps 761 mmHg 54%
    12:00 +27°C° 0 mm 5 mps 761 mmHg 54%
    13:00 +27°C° 0 mm 6 mps 761 mmHg 54%
    14:00 +27°C° 0 mm 6 mps 760 mmHg 54%
    15:00 +27°C° 0 mm 5 mps 761 mmHg 56%
    16:00 +26°C° 0 mm 5 mps 761 mmHg 59%
    17:00 +25°C° 0 mm 4 mps 761 mmHg 61%
    18:00 +23°C° 0 mm 4 mps 761 mmHg 66%
    19:00 +21°C° 0 mm 3 mps 761 mmHg 72%
    20:00 +20°C° 0 mm 2 mps 761 mmHg 78%
    21:00 +19°C° 0 mm 2 mps 761 mmHg 79%
    22:00 +20°C° 0 mm 1 mps 762 mmHg 80%
    23:00 +19°C° 0 mm 1 mps 762 mmHg 81%

    28 Mayo, Martes

    Tiempo Temperatura Precipitaciones Viento Presión Humedad
    00:00 +19°C° 0 mm 1 mps 761 mmHg 82%
    01:00 +19°C° 0 mm 1 mps 761 mmHg 83%
    02:00 +18°C° 0 mm 1 mps 761 mmHg 84%
    03:00 +17°C° 0 mm 2 mps 761 mmHg 83%
    04:00 +18°C° 0 mm 2 mps 761 mmHg 82%
    05:00 +18°C° 0 mm 3 mps 761 mmHg 80%
    06:00 +20°C° 0 mm 4 mps 761 mmHg 74%
    07:00 +22°C° 0 mm 5 mps 761 mmHg 68%
    08:00 +25°C° 0 mm 5 mps 761 mmHg 61%
    09:00 +26°C° 0 mm 6 mps 760 mmHg 54%
    10:00 +27°C° 0 mm 6 mps 760 mmHg 47%
    11:00 +29°C° 0 mm 6 mps 760 mmHg 40%
    12:00 +29°C° 0 mm 6 mps 760 mmHg 41%
    13:00 +29°C° 0 mm 7 mps 759 mmHg 41%
    14:00 +30°C° 0 mm 7 mps 759 mmHg 41%
    15:00 +29°C° 0 mm 7 mps 759 mmHg 44%
    16:00 +28°C° 0 mm 8 mps 759 mmHg 46%
    17:00 +27°C° 0 mm 8 mps 758 mmHg 49%
    18:00 +26°C° 0 mm 8 mps 758 mmHg 52%
    19:00 +24°C° 0 mm 7 mps 758 mmHg 56%
    20:00 +22°C° 0 mm 6 mps 758 mmHg 59%
    21:00 +21°C° 0 mm 6 mps 758 mmHg 60%
    22:00 +21°C° 0 mm 5 mps 758 mmHg 62%
    23:00 +20°C° 0 mm 5 mps 758 mmHg 63%
    Mostrar más